Regional Weather Roundup
Issued by NWS

Home | Current Version | Previous Version | Text Only | Print | Product List | Glossary Off
Versions: 1 2 3 4 5 6 7 8 9 10 11 12 13 14 15 16 17 18 19 20 21 22 23 24 25 26 27 28 29 30 31 32 33 34 35 36 37 38 39 40 41 42 43 44 45 46 47 48 49 50

000
ASUS43 KIND 061409
RWRIN

WEATHER ROUNDUP FOR INDIANA
NATIONAL WEATHER SERVICE INDIANAPOLIS IN
1000 AM EDT MON JUL 06 2015

NOTE: "FAIR" INDICATES FEW OR NO CLOUDS BELOW 12,000 FEET WITH NO
SIGNIFICANT WEATHER AND/OR OBSTRUCTIONS TO VISIBILITY.

* - STATION DOES NOT REPORT WEATHER SUCH AS PRECIPITATION OR FOG.

+ - STATION NOT QUALITY CONTROLLED BY THE NATIONAL WEATHER SERVICE.
    USE DATA WITH CAUTION...ESPECIALLY DEWPOINT AND RELATIVE
    HUMIDITY OBSERVATIONS.

INZ001>003-010>013-019-020-061500-
NORTHWEST INDIANA

CITY           SKY/WX    TMP DP  RH WIND       PRES   REMARKS
GARY /AIRPORT/ SUNNY    N/A N/A N/A S7        30.01F
KNOX *+        SUNNY     72  66  83 SW7       30.04F
LA PORTE +     SUNNY     74  70  88 S7        30.04F FOG
MICHIGAN CITY+ SUNNY     73  64  73 S6        30.03F
MONTICELLO +   SUNNY     73  70  91 S6        30.05F
RENSSELAER +   SUNNY     73  72  94 S6        30.04F
VALPARAISO     SUNNY     74  68  81 S8        30.03F

$$

LMZ046-743>745-061500-
SOUTHERN LAKE MICHIGAN

STATION/POSITION TIME  TEMP    WIND        PRES    WAVE
                       AIR SEA DIR/SP/G            HT
                 (UTC) (F)     (DEG/KT/KT) (MB)    (FT)
BURNS HARBOR     1400   74     180/  9/ 14 1016.6F
MICHIGAN CITY    1400   72     150/ 12/ 14   N/A
5NW MICH CITY    1400   70 66  180/  8/ 10   N/A     1

$$

INZ004-005-014>016-021>024-061500-
NORTH CENTRAL INDIANA

CITY           SKY/WX    TMP DP  RH WIND       PRES   REMARKS
GOSHEN         SUNNY     73  67  81 SW9       30.06F HAZE
LOGANSPORT +   MOSUNNY   73  64  73 SW6       30.08S
PERU/GRISSOM   SUNNY     74  68  80 SW10      30.07S
ROCHESTER +    MOSUNNY   75  70  83 S6        30.07F HAZE
SOUTH BEND     SUNNY     75  67  76 S9        30.04F
WARSAW +         N/A     73  66  78 SW5       30.07F

$$

INZ006>009-017-018-025>027-061500-
NORTHEAST INDIANA

CITY           SKY/WX    TMP DP  RH WIND       PRES   REMARKS
ANGOLA *+        N/A     73  66  78 W3        30.08S
AUBURN +       SUNNY     73  63  68 SW5       30.09S
FORT WAYNE     SUNNY     74  66  76 SW7       30.08F
HUNTINGTON +   SUNNY     73  67  81 W7        30.08F

$$

INZ028-029-035-036-043>045-051>053-061500-
WEST CENTRAL INDIANA

CITY           SKY/WX    TMP DP  RH WIND       PRES   REMARKS
CRAWFORDSVL +  SUNNY     72  65  79 S6        30.08F
GREENCASTLE +  SUNNY     73  63  68 CALM      30.09F
LAFAYETTE      MOSUNNY   73  68  84 S7        30.06F HAZE
TERRE HAUTE    SUNNY     74  69  85 S8        30.07S

$$

INZ030>032-037>040-046>048-054>057-064-065-061500-
CENTRAL INDIANA

CITY           SKY/WX    TMP DP  RH WIND       PRES   REMARKS
CP ATTERBURY + SUNNY     73  64  73 S3        30.11R
COLUMBUS       SUNNY     72  63  73 CALM      30.11R
FRANKFORT +    SUNNY     75  70  86 S7        30.10R
GREENWOOD *+   SUNNY     73  61  64 SW5       30.10S
INDIANAPOLIS   SUNNY     74  64  71 S8        30.08S
-EAGLE CREEK   SUNNY     74  64  71 SW7       30.08F
KOKOMO *+      SUNNY     75  66  73 SW9       30.08S
MARION +       SUNNY     72  66  82 SW8       30.10S
MT COMFORT *+  SUNNY     73  59  60 S6        30.10S
SHELBYVILLE    SUNNY     73  65  75 SW5       30.10R
ZIONSVILLE +   SUNNY     74  64  69 SW8       30.10S

$$

INZ033-034-041-042-049-050-058-059-061500-
EAST CENTRAL INDIANA

CITY           SKY/WX    TMP DP  RH WIND       PRES   REMARKS
MUNCIE         SUNNY     74  63  68 SW8       30.09S

$$

INZ060-061-067>069-081>083-085>088-061500-
SOUTHWEST INDIANA

CITY           SKY/WX    TMP DP  RH WIND       PRES   REMARKS
EVANSVILLE     SUNNY     77  71  82 SW7       30.08F HAZE
HUNTINGBURG *+ SUNNY     75  70  83 S6        30.08F
WASHINGTON +   SUNNY     74  68  79 S3        30.07S

$$

INZ062-063-066-070>080-084-089>092-061500-
SOUTH CENTRAL AND SOUTHEAST INDIANA

CITY           SKY/WX    TMP DP  RH WIND       PRES   REMARKS
BLOOMINGTON    SUNNY     75  67  76 SW6       30.09S
MADISON *+     SUNNY     72  64  78 CALM      30.13S
NORTH VERNON + SUNNY     73  64  73 CALM      30.11S
SEYMOUR +      SUNNY     73  66  78 S3        30.10R

$$




USA.gov is the U.S. government's official web portal to all federal, state and local government web resources and services.